Markham, Ontario

1:02 PM EDT on April 25, 2017 (GMT -0400)
Toronto-Buttonville Municipal

Weather History for CYKZ - September, 2013

Change the Weather History Date:

Wednesday, September 11, 2013

  Actual Average Record
Temperature  
Mean Temperature 80 °F -  
Max Temperature 91 °F 71 °F 91 °F (2013)
Min Temperature 69 °F 53 °F 44 °F (2008)
Cooling Degree Days 15    
Growing Degree Days 30 (Base 50)    
Moisture  
Dew Point 68 °F    
Average Humidity 66    
Maximum Humidity 94    
Minimum Humidity 39    
Precipitation  
Precipitation 0.28 in - - ()
Sea Level Pressure  
Sea Level Pressure 29.95 in    
Wind  
Wind Speed 4 mph ()    
Max Wind Speed 12 mph    
Max Gust Speed 18 mph    
Visibility 13.6 miles    
Events Rain , Thunderstorm    
Averages and records for this station are not official NWS values.
T = Trace of Precipitation, MM = Missing Value Source: Averaged Metar Reports

Daily Weather History Graph

Daily Weather History Graph

Search for Another Location

Airport or City:

Trip Planner

Search our weather history database for the weather conditions in past years. The results will help you decide how hot, cold, wet, or windy it might be!

Date:

Astronomy

Sep. 11, 2013 Rise Set
Actual Time 6:52 AM EDT 7:34 PM EDT
Civil Twilight 6:23 AM EDT 8:03 PM EDT
Nautical Twilight 5:48 AM EDT 8:38 PM EDT
Astronomical Twilight 5:12 AM EDT 9:13 PM EDT
Moon 1:31 PM EDT (9/11) 11:16 PM EDT (9/11)
Length of Visible Light 13h 40m
Length of Day
12h 42m
Waxing Crescent, 38% of the Moon is Illuminated
Sep 11
Waxing Crescent
Sep 12
First Quarter
Sep 19
Full
Sep 26
Last Quarter
Oct 4
New

Hourly Weather History & Observations

Time (EDT) Temp. Heat Index Dew Point Humidity Pressure Visibility Wind Dir Wind Speed Gust Speed Precip Events Conditions
12:00 AM 80.6 °F 83.9 °F 69.8 °F 70% 29.96 in 15.0 mi WSW 4.6 mph - N/A   Clear
1:00 AM 80.6 °F 82.7 °F 66.2 °F 61% 29.96 in 15.0 mi West 4.6 mph - N/A   Clear
2:00 AM 78 °F - 66 °F 58% 29.96 in 15 mi WSW 3.5 mph - -  
2:00 AM 77.0 °F - 66.2 °F 69% 29.96 in 15.0 mi WSW 3.5 mph - N/A   Clear
3:00 AM 77.0 °F - 66.2 °F 69% 29.96 in 15.0 mi SW 3.5 mph - N/A   Clear
4:00 AM 77.0 °F - 66.2 °F 69% 29.96 in 15.0 mi SW 4.6 mph - N/A   Clear
5:00 AM 77.0 °F - 66.2 °F 69% 29.96 in 15.0 mi SW 4.6 mph - N/A   Clear
6:00 AM 73.4 °F - 66.2 °F 78% 29.98 in 15.0 mi West 2.3 mph - N/A   Partly Cloudy
7:00 AM 69.8 °F - 66.2 °F 88% 29.99 in 15.0 mi WSW 2.3 mph - N/A   Partly Cloudy
8:00 AM 74 °F - 67 °F 73% 30.00 in 15 mi SSW 3.5 mph - -   Scattered Clouds
8:00 AM 73.4 °F - 68.0 °F 83% 30.00 in 15.0 mi SW 2.3 mph - N/A   Partly Cloudy
9:00 AM 77.0 °F - 68.0 °F 74% 29.99 in 15.0 mi Calm Calm - N/A   Scattered Clouds
10:00 AM 80.6 °F 83.2 °F 68.0 °F 65% 29.98 in 15.0 mi SW 6.9 mph - N/A   Partly Cloudy
12:00 PM 86.0 °F 89.4 °F 68.0 °F 55% 29.96 in 15.0 mi WSW 9.2 mph 17.3 mph N/A   Partly Cloudy
1:00 PM 89.6 °F 93.4 °F 68.0 °F 49% 29.96 in 15.0 mi WSW 11.5 mph 18.4 mph N/A   Partly Cloudy
2:00 PM 90 °F - 68 °F 39% 29.94 in 15 mi WSW 9.2 mph - -   Scattered Clouds
2:00 PM 91.4 °F 95.4 °F 68.0 °F 46% 29.94 in 15.0 mi WSW 11.5 mph - N/A   Partly Cloudy
3:00 PM 89.6 °F 94.7 °F 69.8 °F 52% 29.92 in 15.0 mi West 6.9 mph - N/A   Scattered Clouds
4:00 PM 89.6 °F 94.7 °F 69.8 °F 52% 29.90 in 15.0 mi West 5.8 mph - N/A   Scattered Clouds
5:00 PM 86.0 °F 89.4 °F 68.0 °F 55% 29.90 in 10.0 mi West 5.8 mph - N/A   Mostly Cloudy
6:00 PM 84.2 °F 87.3 °F 68.0 °F 58% 29.91 in 10.0 mi SW 8.1 mph - N/A   Mostly Cloudy
7:00 PM 80.6 °F 83.2 °F 68.0 °F 65% 29.91 in 15.0 mi SW 5.8 mph - N/A   Mostly Cloudy
8:00 PM 80 °F - 67 °F 57% 29.90 in 15 mi West 4.6 mph - -   Scattered Clouds
8:00 PM 78.8 °F - 68.0 °F 69% 29.90 in 15.0 mi WNW 4.6 mph - N/A   Mostly Cloudy
9:00 PM 77.0 °F - 69.8 °F 78% 29.93 in 15.0 mi Calm Calm - N/A   Mostly Cloudy
9:52 PM - - - N/A% - 12.0 mi NNE 3.5 mph - N/A Rain Light Rain Showers
10:00 PM 73.4 °F - 71.6 °F 94% 29.94 in 12.0 mi North 4.6 mph - N/A Rain Light Rain Showers
10:02 PM - - - N/A% - 12.0 mi North 4.6 mph - N/A Rain , Thunderstorm Light Thunderstorms and Rain
11:00 PM 73.4 °F - 71.6 °F 94% 29.94 in 12.0 mi South 8.1 mph - N/A Rain , Thunderstorm Light Thunderstorms and Rain
11:09 PM - - - N/A% - 6.0 mi West 9.2 mph 17.3 mph N/A Rain , Thunderstorm Thunderstorms and Rain
11:23 PM - - - N/A% - 6.0 mi WNW 5.8 mph - N/A Rain , Thunderstorm Light Thunderstorms and Rain
11:48 PM - - - N/A% - 10.0 mi West 3.5 mph - N/A   Overcast